Retour au catalogue

SL-3 R/B

ActifLEO
NORAD 877·ROCKET BODY·🇷🇺 Russia

Lancé Aug 28, 1964 depuis Baikonur Cosmodrome

Loading…

Prochains Passages (prochaines 24 heures)

TLE

FraisSource: Space-Track

Époque: Sep 14, 2026, 02:01 UTC

1 00877U 64053B   26257.08433342  .00000071  00000-0  38101-4 0  9994
2 00877  65.0763 138.8521 0076996 232.9078 126.4968 14.61462902294328

Suivez SL-3 R/B en temps réel avec AllMySat

Download on the App Store